User: anonymous   Login
Location: Caltech
(34.1382°N, 118.1253°W)
Time: 10:41:45
(UTC-08:00)
Language:

Cosmos 1125 Rocket - Orbit

View from above orbital plane
View from above orbital plane
View from above satellite
View from above satellite

Ground track
Ground track

The orbit data is extracted from the following two-line orbital elements,

1 11511U 79078B   18020.26335102  .00000055  00000-0  27513-4 0  9995
2 11511  74.0369 276.3062 0014569 109.1194 251.1538 14.36799794  9795
Epoch (UTC): 20 January 2018 06:19:13
Eccentricity: 0.0014569
inclination: 74.0369°
perigee height: 758 km
apogee height: 779 km
right ascension of ascending node: 276.3062°
argument of perigee: 109.1194°
revolutions per day: 14.36799794
mean anomaly at epoch: 251.1538°
orbit number at epoch: 979

The dashed part of the orbit path shows where the satellite is in the earth's shadow,  

DLR